,,,PA_Meas_PMT16A,,PR_Meas_QMR101_102,,RH_Meas_QMH101,,SR_Meas_QMS101,,TA_Meas_QMH101,,GenWind,,GenWind,
date,time,status,PA,status,PR,status,RH,status,SR,status,TA,status,DirAvg,status,SpdAvg,
2009-02-20, 00:00:04,VALID,1003.65,VALID,0,VALID,87.5261,VALID,0.100563,VALID,25.045,VALID,342,VALID,0.928906,
2009-02-20, 00:01:04,VALID,1003.65,VALID,0,VALID,87.488,VALID,0,VALID,25.0663,VALID,7,VALID,1.27734,
2009-02-20, 00:02:04,VALID,1003.64,VALID,0,VALID,87.3507,VALID,0,VALID,25.1053,VALID,5,VALID,1.11992,
2009-02-20, 00:03:04,VALID,1003.67,VALID,0,VALID,87.3736,VALID,0,VALID,25.0839,VALID,18,VALID,1.19492,
2009-02-20, 00:04:04,VALID,1003.64,VALID,0,VALID,87.2668,VALID,0,VALID,25.1248,VALID,359,VALID,1.66719,
2009-02-20, 00:05:04,VALID,1003.64,VALID,0,VALID,87.1218,VALID,0,VALID,25.1423,VALID,2,VALID,1.22031,
2009-02-20, 00:06:04,VALID,1003.61,VALID,0,VALID,86.6412,VALID,0,VALID,25.2027,VALID,13,VALID,1.41914,
2009-02-20, 00:07:04,VALID,1003.62,VALID,0,VALID,86.2598,VALID,0,VALID,25.2806,VALID,1,VALID,1.53437,
2009-02-20, 00:08:04,VALID,1003.61,VALID,0,VALID,85.741,VALID,0,VALID,25.339,VALID,16,VALID,2.15039,
2009-02-20, 00:09:04,VALID,1003.62,VALID,0,VALID,85.7639,VALID,0,VALID,25.3565,VALID,343,VALID,0.800781,
2009-02-20, 00:10:04,VALID,1003.6,VALID,0,VALID,85.3367,VALID,0,VALID,25.3584,VALID,17,VALID,1.75664,
2009-02-20, 00:11:04,VALID,1003.61,VALID,0,VALID,85.1917,VALID,0,VALID,25.3779,VALID,18,VALID,1.44531,
2009-02-20, 00:12:04,VALID,1003.59,VALID,0,VALID,85.0086,VALID,0,VALID,25.3584,VALID,355,VALID,1.29883,
2009-02-20, 00:13:04,VALID,1003.58,VALID,0,VALID,85.0468,VALID,0,VALID,25.3584,VALID,16,VALID,0.733984,
2009-02-20, 00:14:04,VALID,1003.57,VALID,0,VALID,84.6348,VALID,0,VALID,25.339,VALID,7,VALID,1.30313,
2009-02-20, 00:15:04,VALID,1003.56,VALID,0,VALID,84.4136,VALID,0,VALID,25.3584,VALID,4,VALID,0.962891,
2009-02-20, 00:16:04,VALID,1003.52,VALID,0,VALID,84.1847,VALID,0,VALID,25.3584,VALID,358,VALID,1.39844,
2009-02-20, 00:17:04,VALID,1003.46,VALID,0,VALID,84.0397,VALID,0,VALID,25.3584,VALID,355,VALID,1.41328,
2009-02-20, 00:18:04,VALID,1003.46,VALID,0,VALID,84.0016,VALID,0,VALID,25.337,VALID,352,VALID,1.28164,
2009-02-20, 00:19:04,VALID,1003.45,VALID,0,VALID,84.0474,VALID,0,VALID,25.3565,VALID,357,VALID,0.857422,
2009-02-20, 00:20:04,VALID,1003.43,VALID,0,VALID,83.4523,VALID,0,VALID,25.339,VALID,341,VALID,1.52656,
2009-02-20, 00:21:04,VALID,1003.44,VALID,0,VALID,83.5439,VALID,0,VALID,25.3584,VALID,350,VALID,0.855078,
2009-02-20, 00:22:04,VALID,1003.41,VALID,0,VALID,83.0785,VALID,0.100563,VALID,25.3584,VALID,351,VALID,1.68477,
2009-02-20, 00:23:04,VALID,1003.38,VALID,0,VALID,82.9717,VALID,0,VALID,25.3779,VALID,346,VALID,0.908984,
2009-02-20, 00:24:04,VALID,1003.39,VALID,0,VALID,83.0785,VALID,0,VALID,25.3584,VALID,357,VALID,1.1832,
2009-02-20, 00:25:04,VALID,1003.37,VALID,0,VALID,83.2082,VALID,0,VALID,25.3176,VALID,358,VALID,1.20508,
2009-02-20, 00:26:04,VALID,1003.36,VALID,0,VALID,83.109,VALID,0,VALID,25.2981,VALID,328,VALID,1.00977,
2009-02-20, 00:27:04,VALID,1003.33,VALID,0,VALID,83.0709,VALID,0,VALID,25.3,VALID,350,VALID,0.889453,
2009-02-20, 00:28:04,VALID,1003.31,VALID,0,VALID,83.1548,VALID,0,VALID,25.2806,VALID,356,VALID,1.24727,
2009-02-20, 00:29:04,VALID,1003.3,VALID,0,VALID,83.2463,VALID,0,VALID,25.2806,VALID,350,VALID,1.11992,
2009-02-20, 00:30:04,VALID,1003.29,VALID,0,VALID,83.3608,VALID,0,VALID,25.263,VALID,356,VALID,0.916406,
2009-02-20, 00:31:04,VALID,1003.31,VALID,0,VALID,83.2769,VALID,0,VALID,25.2221,VALID,357,VALID,1.25117,
2009-02-20, 00:32:04,VALID,1003.3,VALID,0,VALID,83.0632,VALID,0,VALID,25.2027,VALID,352,VALID,1.28984,
2009-02-20, 00:33:04,VALID,1003.29,VALID,0,VALID,83.1624,VALID,0,VALID,25.2221,VALID,13,VALID,1.55,
2009-02-20, 00:34:04,VALID,1003.3,VALID,0,VALID,83.0938,VALID,0,VALID,25.2416,VALID,356,VALID,0.69375,
2009-02-20, 00:35:04,VALID,1003.26,VALID,0,VALID,83.2616,VALID,0,VALID,25.2416,VALID,11,VALID,1.14297,
2009-02-20, 00:36:04,VALID,1003.28,VALID,0,VALID,82.9946,VALID,0,VALID,25.2416,VALID,338,VALID,0.803906,
2009-02-20, 00:37:04,VALID,1003.25,VALID,0,VALID,82.7657,VALID,0,VALID,25.2416,VALID,341,VALID,0.919922,
2009-02-20, 00:38:04,VALID,1003.25,VALID,0,VALID,83.1624,VALID,0,VALID,25.2416,VALID,335,VALID,0.637891,
2009-02-20, 00:39:04,VALID,1003.25,VALID,0,VALID,82.8878,VALID,0,VALID,25.2416,VALID,359,VALID,1.07266,
2009-02-20, 00:40:04,VALID,1003.24,VALID,0,VALID,82.9183,VALID,0,VALID,25.2202,VALID,335,VALID,1.10977,
2009-02-20, 00:41:04,VALID,1003.29,VALID,0,VALID,82.9564,VALID,0,VALID,25.2202,VALID,304,VALID,0.957422,
2009-02-20, 00:42:04,VALID,1003.26,VALID,0,VALID,83.048,VALID,0,VALID,25.2416,VALID,330,VALID,0.758594,
2009-02-20, 00:43:04,VALID,1003.29,VALID,0,VALID,83.5134,VALID,0,VALID,25.224,VALID,347,VALID,1.325,
2009-02-20, 00:44:04,VALID,1003.28,VALID,0,VALID,83.7117,VALID,0,VALID,25.224,VALID,346,VALID,1.47539,
2009-02-20, 00:45:04,VALID,1003.27,VALID,0,VALID,84.055,VALID,0,VALID,25.2221,VALID,31,VALID,0.875781,
2009-02-20, 00:46:04,VALID,1003.29,VALID,0,VALID,84.1771,VALID,0,VALID,25.2221,VALID,345,VALID,0.816016,
2009-02-20, 00:47:04,VALID,1003.28,VALID,0,VALID,84.1008,VALID,0,VALID,25.263,VALID,347,VALID,1.28008,
2009-02-20, 00:48:04,VALID,1003.28,VALID,0,VALID,84.2305,VALID,0,VALID,25.2397,VALID,330,VALID,0.998828,
2009-02-20, 00:49:04,VALID,1003.26,VALID,0,VALID,84.116,VALID,0,VALID,25.2806,VALID,337,VALID,1.24102,
2009-02-20, 00:50:04,VALID,1003.25,VALID,0,VALID,84.2,VALID,0,VALID,25.2592,VALID,346,VALID,1.20977,
2009-02-20, 00:51:04,VALID,1003.24,VALID,0,VALID,84.2762,VALID,0,VALID,25.2786,VALID,354,VALID,0.790625,
2009-02-20, 00:52:04,VALID,1003.23,VALID,0,VALID,84.2534,VALID,0,VALID,25.3,VALID,338,VALID,1.20625,
2009-02-20, 00:53:04,VALID,1003.22,VALID,0,VALID,84.3678,VALID,0,VALID,25.2981,VALID,348,VALID,0.912891,
2009-02-20, 00:54:04,VALID,1003.18,VALID,0,VALID,84.5051,VALID,0,VALID,25.3195,VALID,351,VALID,1.98906,
2009-02-20, 00:55:04,VALID,1003.21,VALID,0,VALID,84.6653,VALID,0,VALID,25.339,VALID,334,VALID,1.17617,
2009-02-20, 00:56:04,VALID,1003.22,VALID,0,VALID,84.8179,VALID,0,VALID,25.339,VALID,354,VALID,1.32773,
2009-02-20, 00:57:04,VALID,1003.23,VALID,0,VALID,85.0239,VALID,0,VALID,25.339,VALID,354,VALID,1.46602,
2009-02-20, 00:58:04,VALID,1003.21,VALID,0,VALID,85.0391,VALID,0,VALID,25.3584,VALID,345,VALID,2.16055,
2009-02-20, 00:59:04,VALID,1003.22,VALID,0,VALID,85.1307,VALID,0,VALID,25.3779,VALID,348,VALID,1.24023,
2009-02-20, 01:00:04,VALID,1003.22,VALID,0,VALID,85.2222,VALID,0,VALID,25.3565,VALID,348,VALID,1.32695,
2009-02-20, 01:01:04,VALID,1003.24,VALID,0,VALID,85.535,VALID,0,VALID,25.3779,VALID,343,VALID,1.65703,
2009-02-20, 01:02:04,VALID,1003.2,VALID,0,VALID,85.6723,VALID,0,VALID,25.3584,VALID,352,VALID,1.62578,
2009-02-20, 01:03:04,VALID,1003.15,VALID,0,VALID,85.8783,VALID,0,VALID,25.337,VALID,350,VALID,1.09414,
2009-02-20, 01:04:04,VALID,1003.15,VALID,0,VALID,85.9699,VALID,0,VALID,25.3584,VALID,355,VALID,1.37031,
2009-02-20, 01:05:04,VALID,1003.12,VALID,0,VALID,86.1301,VALID,0,VALID,25.339,VALID,348,VALID,1.24063,
2009-02-20, 01:06:04,VALID,1003.11,VALID,0,VALID,86.2521,VALID,0,VALID,25.339,VALID,348,VALID,1.03203,
2009-02-20, 01:07:04,VALID,1003.1,VALID,0,VALID,86.2369,VALID,0,VALID,25.3,VALID,349,VALID,1.33477,
2009-02-20, 01:08:04,VALID,1003.08,VALID,0,VALID,86.3894,VALID,0,VALID,25.3,VALID,342,VALID,1.13398,
2009-02-20, 01:09:04,VALID,1003.07,VALID,0,VALID,86.6336,VALID,0,VALID,25.2786,VALID,351,VALID,1.43945,
2009-02-20, 01:10:04,VALID,1003.02,VALID,0,VALID,86.2216,VALID,0,VALID,25.2592,VALID,3,VALID,1.32187,
2009-02-20, 01:11:04,VALID,1003.02,VALID,0,VALID,86.008,VALID,0,VALID,25.3019,VALID,356,VALID,1.06523,
2009-02-20, 01:12:04,VALID,1003,VALID,0,VALID,85.9546,VALID,0,VALID,25.2806,VALID,348,VALID,0.763672,
2009-02-20, 01:13:04,VALID,1002.96,VALID,0,VALID,85.8783,VALID,0,VALID,25.2592,VALID,7,VALID,1.0418,
2009-02-20, 01:14:04,VALID,1002.95,VALID,0,VALID,85.5198,VALID,0,VALID,25.2611,VALID,355,VALID,0.770312,
2009-02-20, 01:15:04,VALID,1002.95,VALID,0,VALID,85.6189,VALID,0,VALID,25.2611,VALID,1,VALID,0.563672,
2009-02-20, 01:16:04,VALID,1002.94,VALID,0,VALID,85.2985,VALID,0,VALID,25.2592,VALID,352,VALID,1.18555,
2009-02-20, 01:17:04,VALID,1002.93,VALID,0,VALID,85.3138,VALID,0,VALID,25.2397,VALID,343,VALID,0.715234,
2009-02-20, 01:18:04,VALID,1002.95,VALID,0,VALID,85.2604,VALID,0,VALID,25.2611,VALID,17,VALID,0.706641,
2009-02-20, 01:19:04,VALID,1002.88,VALID,0,VALID,85.0849,VALID,0,VALID,25.2416,VALID,356,VALID,1.03203,
2009-02-20, 01:20:04,VALID,1002.86,VALID,0,VALID,85.0696,VALID,0,VALID,25.2806,VALID,15,VALID,1.68164,
2009-02-20, 01:21:04,VALID,1002.86,VALID,0,VALID,85.0468,VALID,0,VALID,25.2806,VALID,356,VALID,1.06719,
2009-02-20, 01:22:04,VALID,1002.83,VALID,0,VALID,85.0162,VALID,0,VALID,25.2786,VALID,359,VALID,0.923047,
2009-02-20, 01:23:04,VALID,1002.81,VALID,0,VALID,85.1459,VALID,0,VALID,25.2786,VALID,358,VALID,0.910937,
2009-02-20, 01:24:04,VALID,1002.79,VALID,0,VALID,85.1765,VALID,0,VALID,25.3,VALID,1,VALID,0.607422,
2009-02-20, 01:25:04,VALID,1002.79,VALID,0,VALID,85.1841,VALID,0,VALID,25.2786,VALID,344,VALID,0.85625,
2009-02-20, 01:26:04,VALID,1002.79,VALID,0,VALID,85.2222,VALID,0,VALID,25.2786,VALID,11,VALID,1.94062,
2009-02-20, 01:27:04,VALID,1002.82,VALID,0,VALID,85.1459,VALID,0,VALID,25.3,VALID,343,VALID,0.961719,
2009-02-20, 01:28:04,VALID,1002.83,VALID,0,VALID,85.2527,VALID,0,VALID,25.3019,VALID,357,VALID,0.976172,
2009-02-20, 01:29:04,VALID,1002.86,VALID,0,VALID,85.4892,VALID,0,VALID,25.2397,VALID,14,VALID,1.06914,
2009-02-20, 01:30:04,VALID,1002.87,VALID,0,VALID,85.68,VALID,0,VALID,25.2416,VALID,22,VALID,0.894531,
2009-02-20, 01:31:04,VALID,1002.87,VALID,0,VALID,85.9317,VALID,0,VALID,25.2416,VALID,14,VALID,1.82422,
2009-02-20, 01:32:04,VALID,1002.87,VALID,0,VALID,85.9622,VALID,0,VALID,25.2202,VALID,3,VALID,0.812891,
2009-02-20, 01:33:04,VALID,1002.84,VALID,0,VALID,86.1301,VALID,0,VALID,25.2007,VALID,14,VALID,0.878125,
2009-02-20, 01:34:04,VALID,1002.82,VALID,0,VALID,86.1148,VALID,0,VALID,25.1813,VALID,15,VALID,1.95469,
2009-02-20, 01:35:04,VALID,1002.82,VALID,0,VALID,86.2521,VALID,0,VALID,25.1813,VALID,332,VALID,0.917188,
2009-02-20, 01:36:04,VALID,1002.81,VALID,0,VALID,86.4657,VALID,0,VALID,25.1832,VALID,14,VALID,0.8875,
2009-02-20, 01:37:04,VALID,1002.81,VALID,0,VALID,86.4886,VALID,0,VALID,25.1832,VALID,355,VALID,1.75898,
2009-02-20, 01:38:04,VALID,1002.8,VALID,0,VALID,86.5954,VALID,0,VALID,25.1832,VALID,3,VALID,0.874609,
2009-02-20, 01:39:04,VALID,1002.79,VALID,0,VALID,86.542,VALID,0,VALID,25.1637,VALID,346,VALID,0.929297,
2009-02-20, 01:40:04,VALID,1002.78,VALID,0,VALID,86.809,VALID,0,VALID,25.1656,VALID,351,VALID,1.49492,
2009-02-20, 01:41:04,VALID,1002.79,VALID,0,VALID,86.7709,VALID,0,VALID,25.1637,VALID,34,VALID,1.29258,
2009-02-20, 01:42:04,VALID,1003,VALID,0,VALID,86.7099,VALID,0.100563,VALID,25.1832,VALID,359,VALID,0.991797,
2009-02-20, 01:43:04,VALID,1002.73,VALID,0,VALID,86.6946,VALID,0,VALID,25.1832,VALID,356,VALID,1.88711,
2009-02-20, 01:44:04,VALID,1002.76,VALID,0,VALID,86.6641,VALID,0,VALID,25.1832,VALID,19,VALID,0.616797,
2009-02-20, 01:45:04,VALID,1002.72,VALID,0,VALID,86.6641,VALID,0,VALID,25.1442,VALID,356,VALID,1.47461,
2009-02-20, 01:46:04,VALID,1002.7,VALID,0,VALID,86.6488,VALID,0,VALID,25.1229,VALID,346,VALID,1.19766,
2009-02-20, 01:47:04,VALID,1002.68,VALID,0,VALID,86.6412,VALID,0,VALID,25.1053,VALID,346,VALID,1.04062,
2009-02-20, 01:48:04,VALID,1002.63,VALID,0,VALID,86.809,VALID,0,VALID,25.045,VALID,2,VALID,1.37656,
2009-02-20, 01:49:04,VALID,1002.62,VALID,0,VALID,86.9692,VALID,0,VALID,25.045,VALID,30,VALID,1.22266,
2009-02-20, 01:50:04,VALID,1002.54,VALID,0,VALID,87.0608,VALID,0,VALID,25.0274,VALID,353,VALID,0.43125,
2009-02-20, 01:51:04,VALID,1002.53,VALID,0,VALID,87.1447,VALID,0,VALID,25.006,VALID,341,VALID,0.833203,
2009-02-20, 01:52:04,VALID,1002.49,VALID,0,VALID,87.1523,VALID,0,VALID,24.9866,VALID,30,VALID,0.907031,
2009-02-20, 01:53:04,VALID,1002.48,VALID,0,VALID,87.2362,VALID,0,VALID,24.9671,VALID,3,VALID,0.720312,
2009-02-20, 01:54:04,VALID,1002.48,VALID,0,VALID,87.3888,VALID,0,VALID,24.9885,VALID,1,VALID,0.679297,
2009-02-20, 01:55:04,VALID,1002.45,VALID,0,VALID,87.4499,VALID,0.100563,VALID,24.969,VALID,1,VALID,0.437109,
2009-02-20, 01:56:04,VALID,1002.45,VALID,0,VALID,87.4651,VALID,0,VALID,24.9495,VALID,357,VALID,1.32187,
2009-02-20, 01:57:04,VALID,1002.42,VALID,0,VALID,87.4651,VALID,0,VALID,24.93,VALID,337,VALID,1.33398,
2009-02-20, 01:58:04,VALID,1002.43,VALID,0,VALID,87.4575,VALID,0,VALID,24.9087,VALID,344,VALID,1.11563,
2009-02-20, 01:59:05,VALID,1002.4,VALID,0,VALID,87.4422,VALID,0,VALID,24.9282,VALID,75,VALID,0.715234,
2009-02-20, 02:00:05,VALID,1002.41,VALID,0,VALID,87.3354,VALID,0,VALID,24.9282,VALID,329,VALID,0.609375,
2009-02-20, 02:01:05,VALID,1002.39,VALID,0,VALID,87.343,VALID,0.100563,VALID,24.9495,VALID,360,VALID,0.525781,
2009-02-20, 02:02:05,VALID,1002.38,VALID,0,VALID,87.221,VALID,0,VALID,24.9495,VALID,335,VALID,0.385938,
2009-02-20, 02:03:05,VALID,1002.38,VALID,0,VALID,87.1523,VALID,0,VALID,24.9495,VALID,346,VALID,0.578125,
2009-02-20, 02:04:05,VALID,1002.36,VALID,0,VALID,87.0303,VALID,0,VALID,24.9495,VALID,4,VALID,0.401563,
2009-02-20, 02:05:05,VALID,1002.36,VALID,0,VALID,87.0608,VALID,0,VALID,24.9495,VALID,4,VALID,0.175,
2009-02-20, 02:06:05,VALID,1002.37,VALID,0,VALID,87.0837,VALID,0,VALID,24.93,VALID,4,VALID,0.0503906,
2009-02-20, 02:07:05,VALID,1002.33,VALID,0,VALID,87.16,VALID,0,VALID,24.9087,VALID,4,VALID,0.0585938,
2009-02-20, 02:08:05,VALID,1002.32,VALID,0,VALID,87.1371,VALID,0,VALID,24.8911,VALID,3,VALID,0,
2009-02-20, 02:09:05,VALID,1002.28,VALID,0,VALID,87.1142,VALID,0,VALID,24.8911,VALID,32,VALID,0.480469,
2009-02-20, 02:10:05,VALID,1002.27,VALID,0,VALID,87.2591,VALID,0,VALID,24.8522,VALID,33,VALID,0,
2009-02-20, 02:11:05,VALID,1002.24,VALID,0,VALID,87.1294,VALID,0,VALID,24.854,VALID,22,VALID,0.242188,
2009-02-20, 02:12:05,VALID,1002.2,VALID,0,VALID,87.0989,VALID,0,VALID,24.8327,VALID,3,VALID,0.346484,
2009-02-20, 02:13:05,VALID,1002.22,VALID,0,VALID,86.9158,VALID,0,VALID,24.7937,VALID,3,VALID,0.0105469,
2009-02-20, 02:14:05,VALID,1002.18,VALID,0,VALID,86.8929,VALID,0,VALID,24.7529,VALID,3,VALID,0.0972656,
2009-02-20, 02:15:05,VALID,1002.2,VALID,0,VALID,86.8929,VALID,0,VALID,24.7548,VALID,3,VALID,0,
2009-02-20, 02:16:05,VALID,1002.21,VALID,0,VALID,87.0379,VALID,0,VALID,24.7353,VALID,3,VALID,0,
2009-02-20, 02:17:05,VALID,1002.22,VALID,0,VALID,87.3278,VALID,0,VALID,24.6945,VALID,3,VALID,0,
2009-02-20, 02:18:05,VALID,1002.25,VALID,0,VALID,87.5643,VALID,0,VALID,24.6964,VALID,3,VALID,0,
2009-02-20, 02:19:05,VALID,1002.24,VALID,0,VALID,87.8084,VALID,0,VALID,24.6574,VALID,3,VALID,0,
2009-02-20, 02:20:05,VALID,1002.24,VALID,0,VALID,87.9839,VALID,0,VALID,24.6185,VALID,3,VALID,0,
2009-02-20, 02:21:05,VALID,1002.21,VALID,0,VALID,88.0754,VALID,0,VALID,24.5388,VALID,3,VALID,0,
2009-02-20, 02:22:05,VALID,1002.18,VALID,0,VALID,88.0525,VALID,0,VALID,24.5406,VALID,3,VALID,0,
2009-02-20, 02:23:05,VALID,1002.16,VALID,0,VALID,88.0907,VALID,0,VALID,24.4998,VALID,3,VALID,0.0015625,
2009-02-20, 02:24:05,VALID,1002.14,VALID,0,VALID,88.2127,VALID,0,VALID,24.4822,VALID,3,VALID,0.328906,
2009-02-20, 02:25:05,VALID,1002.11,VALID,0,VALID,88.4721,VALID,0,VALID,24.4628,VALID,3,VALID,0.249219,
2009-02-20, 02:26:05,VALID,1002.09,VALID,0,VALID,88.6094,VALID,0,VALID,24.4043,VALID,315,VALID,0.402344,
2009-02-20, 02:27:05,VALID,1002.1,VALID,0,VALID,88.3195,VALID,0,VALID,24.3654,VALID,357,VALID,0.502344,
2009-02-20, 02:28:05,VALID,1002.1,VALID,0,VALID,88.1365,VALID,0,VALID,24.3459,VALID,357,VALID,0.302344,
2009-02-20, 02:29:05,VALID,1002.09,VALID,0,VALID,88.0907,VALID,0,VALID,24.3654,VALID,357,VALID,0,
2009-02-20, 02:30:05,VALID,1002.1,VALID,0,VALID,88.2204,VALID,0,VALID,24.3441,VALID,357,VALID,0.0339844,
2009-02-20, 02:31:05,VALID,1002.12,VALID,0,VALID,88.1899,VALID,0,VALID,24.3654,VALID,357,VALID,0.0546875,
2009-02-20, 02:32:05,VALID,1002.12,VALID,0,VALID,88.0525,VALID,0,VALID,24.3246,VALID,357,VALID,0,
2009-02-20, 02:33:05,VALID,1002.1,VALID,0,VALID,88.1441,VALID,0,VALID,24.3265,VALID,357,VALID,0,
2009-02-20, 02:34:05,VALID,1002.12,VALID,0,VALID,88.1975,VALID,0,VALID,24.3265,VALID,357,VALID,0,
2009-02-20, 02:35:05,VALID,1002.1,VALID,0,VALID,88.2204,VALID,0,VALID,24.3265,VALID,357,VALID,0,
2009-02-20, 02:36:05,VALID,1002.12,VALID,0,VALID,88.2585,VALID,0,VALID,24.3265,VALID,357,VALID,0,
2009-02-20, 02:37:05,VALID,1002.13,VALID,0,VALID,88.3119,VALID,0,VALID,24.2857,VALID,357,VALID,0,
2009-02-20, 02:38:05,VALID,1002.14,VALID,0,VALID,88.5942,VALID,0.100563,VALID,24.2644,VALID,357,VALID,0,
2009-02-20, 02:39:05,VALID,1002.16,VALID,0,VALID,88.7544,VALID,0,VALID,24.2875,VALID,273,VALID,0.564062,
2009-02-20, 02:40:05,VALID,1002.13,VALID,0,VALID,89.0214,VALID,0,VALID,24.2486,VALID,273,VALID,0.458984,
2009-02-20, 02:41:05,VALID,1002.1,VALID,0,VALID,89.2045,VALID,0,VALID,24.2097,VALID,205,VALID,0.841016,
2009-02-20, 02:42:05,VALID,1002.1,VALID,0,VALID,89.4334,VALID,0,VALID,24.1884,VALID,199,VALID,0.642187,
2009-02-20, 02:43:05,VALID,1002.07,VALID,0,VALID,89.6851,VALID,0,VALID,24.1513,VALID,199,VALID,0.510547,
2009-02-20, 02:44:05,VALID,1002.05,VALID,0,VALID,90.0055,VALID,0,VALID,24.091,VALID,199,VALID,0.168359,
2009-02-20, 02:45:05,VALID,1002.06,VALID,0,VALID,90.242,VALID,0,VALID,24.0734,VALID,199,VALID,0.0714844,
2009-02-20, 02:46:05,VALID,1002.06,VALID,0,VALID,90.448,VALID,0,VALID,24.0539,VALID,199,VALID,0,
2009-02-20, 02:47:05,VALID,1002.08,VALID,0,VALID,90.6235,VALID,0,VALID,24.0539,VALID,199,VALID,0,
2009-02-20, 02:48:05,VALID,1002.07,VALID,0,VALID,90.7837,VALID,0.100563,VALID,23.9937,VALID,199,VALID,0,
2009-02-20, 02:49:05,VALID,1002.09,VALID,0,VALID,90.982,VALID,0,VALID,23.9973,VALID,199,VALID,0,
2009-02-20, 02:50:05,VALID,1002.06,VALID,0,VALID,91.0888,VALID,0,VALID,23.9566,VALID,199,VALID,0.262891,
2009-02-20, 02:51:05,VALID,1002.11,VALID,0,VALID,91.1041,VALID,0,VALID,23.8982,VALID,199,VALID,0.273047,
2009-02-20, 02:52:05,VALID,1002.11,VALID,0,VALID,91.1651,VALID,0,VALID,23.8593,VALID,199,VALID,0.0828125,
2009-02-20, 02:53:05,VALID,1002.09,VALID,0,VALID,91.2719,VALID,0,VALID,23.8398,VALID,199,VALID,0.21875,
2009-02-20, 02:54:05,VALID,1002.12,VALID,0,VALID,91.3024,VALID,0,VALID,23.7601,VALID,199,VALID,0,
2009-02-20, 02:55:05,VALID,1002.14,VALID,0,VALID,91.3558,VALID,0,VALID,23.7407,VALID,199,VALID,0,
2009-02-20, 02:56:05,VALID,1002.19,VALID,0,VALID,91.4474,VALID,0,VALID,23.723,VALID,199,VALID,0.00351562,
2009-02-20, 02:57:05,VALID,1002.23,VALID,0,VALID,91.5695,VALID,0,VALID,23.7035,VALID,199,VALID,0,
2009-02-20, 02:58:05,VALID,1002.22,VALID,0,VALID,91.6763,VALID,0,VALID,23.6646,VALID,199,VALID,0.117969,
2009-02-20, 02:59:05,VALID,1002.24,VALID,0,VALID,91.7831,VALID,0,VALID,23.6239,VALID,199,VALID,0,
2009-02-20, 03:00:05,VALID,1002.24,VALID,0,VALID,91.9128,VALID,0,VALID,23.6452,VALID,199,VALID,0,
2009-02-20, 03:01:05,VALID,1002.24,VALID,0,VALID,92.0424,VALID,0,VALID,23.6044,VALID,199,VALID,0,
2009-02-20, 03:02:05,VALID,1002.27,VALID,0,VALID,92.1264,VALID,0,VALID,23.6257,VALID,199,VALID,0,
2009-02-20, 03:03:05,VALID,1002.3,VALID,0,VALID,92.2027,VALID,0,VALID,23.6062,VALID,199,VALID,0,
2009-02-20, 03:04:05,VALID,1002.31,VALID,0,VALID,92.1187,VALID,0,VALID,23.5655,VALID,199,VALID,0.362109,
2009-02-20, 03:05:05,VALID,1002.34,VALID,0,VALID,92.1416,VALID,0,VALID,23.546,VALID,199,VALID,0.515625,
2009-02-20, 03:06:05,VALID,1002.33,VALID,0,VALID,92.2332,VALID,0,VALID,23.5284,VALID,199,VALID,0.285156,
2009-02-20, 03:07:05,VALID,1002.3,VALID,0,VALID,92.3018,VALID,0,VALID,23.5089,VALID,199,VALID,0.298047,
2009-02-20, 03:08:05,VALID,1002.34,VALID,0,VALID,92.5383,VALID,0,VALID,23.4682,VALID,199,VALID,0.142578,
2009-02-20, 03:09:05,VALID,1002.34,VALID,0,VALID,92.6451,VALID,0,VALID,23.5089,VALID,199,VALID,0,
2009-02-20, 03:10:05,VALID,1002.33,VALID,0,VALID,92.5993,VALID,0,VALID,23.5089,VALID,199,VALID,0,
2009-02-20, 03:11:05,VALID,1002.33,VALID,0,VALID,92.6299,VALID,0,VALID,23.4487,VALID,199,VALID,0,
2009-02-20, 03:12:05,VALID,1002.36,VALID,0,VALID,92.6756,VALID,0,VALID,23.4487,VALID,199,VALID,0,
2009-02-20, 03:13:05,VALID,1002.32,VALID,0,VALID,92.6909,VALID,0,VALID,23.4293,VALID,199,VALID,0,
2009-02-20, 03:14:05,VALID,1002.33,VALID,0,VALID,92.7062,VALID,0,VALID,23.4311,VALID,201,VALID,0,
2009-02-20, 03:15:05,VALID,1002.36,VALID,0,VALID,92.7824,VALID,0,VALID,23.3904,VALID,201,VALID,0,
2009-02-20, 03:16:05,VALID,1002.37,VALID,0,VALID,92.8358,VALID,0,VALID,23.3514,VALID,201,VALID,0,
2009-02-20, 03:17:05,VALID,1002.35,VALID,0,VALID,92.9045,VALID,0,VALID,23.3337,VALID,201,VALID,0,
2009-02-20, 03:18:05,VALID,1002.33,VALID,0,VALID,92.935,VALID,0,VALID,23.3143,VALID,201,VALID,0,
2009-02-20, 03:19:05,VALID,1002.37,VALID,0,VALID,92.9961,VALID,0,VALID,23.2754,VALID,201,VALID,0,
2009-02-20, 03:20:05,VALID,1002.36,VALID,0,VALID,93.0647,VALID,0,VALID,23.2966,VALID,201,VALID,0,
2009-02-20, 03:21:05,VALID,1002.37,VALID,0,VALID,93.1334,VALID,0,VALID,23.2559,VALID,201,VALID,0,
2009-02-20, 03:22:05,VALID,1002.36,VALID,0,VALID,93.2325,VALID,0,VALID,23.2754,VALID,201,VALID,0,
2009-02-20, 03:23:05,VALID,1002.35,VALID,0,VALID,93.2402,VALID,0,VALID,23.2559,VALID,201,VALID,0,
2009-02-20, 03:24:05,VALID,1002.38,VALID,0,VALID,93.2325,VALID,0,VALID,23.2152,VALID,201,VALID,0,
2009-02-20, 03:25:05,VALID,1002.4,VALID,0,VALID,93.2707,VALID,0,VALID,23.2364,VALID,201,VALID,0,
2009-02-20, 03:26:05,VALID,1002.4,VALID,0,VALID,93.2936,VALID,0,VALID,23.1957,VALID,201,VALID,0,
2009-02-20, 03:27:05,VALID,1002.42,VALID,0,VALID,93.3241,VALID,0,VALID,23.217,VALID,201,VALID,0,
2009-02-20, 03:28:05,VALID,1002.43,VALID,0,VALID,93.3241,VALID,0,VALID,23.1975,VALID,201,VALID,0,
2009-02-20, 03:29:05,VALID,1002.45,VALID,0,VALID,93.3546,VALID,0,VALID,23.1975,VALID,201,VALID,0,
2009-02-20, 03:30:05,VALID,1002.44,VALID,0,VALID,93.4004,VALID,0,VALID,23.1975,VALID,201,VALID,0,
2009-02-20, 03:31:05,VALID,1002.49,VALID,0,VALID,93.4233,VALID,0,VALID,23.1763,VALID,201,VALID,0,
2009-02-20, 03:32:05,VALID,1002.51,VALID,0,VALID,93.4233,VALID,0,VALID,23.1568,VALID,201,VALID,0,
2009-02-20, 03:33:05,VALID,1002.51,VALID,0,VALID,93.4004,VALID,0,VALID,23.1391,VALID,201,VALID,0,
2009-02-20, 03:34:05,VALID,1002.57,VALID,0,VALID,93.4309,VALID,0,VALID,23.1197,VALID,201,VALID,0,
2009-02-20, 03:35:05,VALID,1002.6,VALID,0,VALID,93.4538,VALID,0,VALID,23.1002,VALID,201,VALID,0,
2009-02-20, 03:36:05,VALID,1002.61,VALID,0,VALID,93.4462,VALID,0,VALID,23.0595,VALID,201,VALID,0,
2009-02-20, 03:37:05,VALID,1002.63,VALID,0,VALID,93.5148,VALID,0,VALID,23.1019,VALID,201,VALID,0,
2009-02-20, 03:38:05,VALID,1002.63,VALID,0,VALID,93.5911,VALID,0,VALID,23.1002,VALID,201,VALID,0,
2009-02-20, 03:39:05,VALID,1002.64,VALID,0,VALID,93.6216,VALID,0,VALID,23.079,VALID,201,VALID,0,
2009-02-20, 03:40:05,VALID,1002.66,VALID,0,VALID,93.6598,VALID,0,VALID,23.1002,VALID,201,VALID,0,
2009-02-20, 03:41:05,VALID,1002.65,VALID,0,VALID,93.6903,VALID,0,VALID,23.0807,VALID,201,VALID,0,
2009-02-20, 03:42:05,VALID,1002.71,VALID,0,VALID,93.7208,VALID,0,VALID,23.0807,VALID,201,VALID,0,
2009-02-20, 03:43:05,VALID,1002.77,VALID,0,VALID,93.7666,VALID,0,VALID,23.0807,VALID,201,VALID,0,
2009-02-20, 03:44:05,VALID,1002.77,VALID,0,VALID,93.7742,VALID,0,VALID,23.1002,VALID,201,VALID,0,
2009-02-20, 03:45:05,VALID,1002.82,VALID,0,VALID,93.7895,VALID,0,VALID,23.0807,VALID,201,VALID,0,
2009-02-20, 03:46:05,VALID,1002.82,VALID,0,VALID,93.8505,VALID,0,VALID,23.079,VALID,201,VALID,0,
2009-02-20, 03:47:05,VALID,1002.86,VALID,0,VALID,93.8657,VALID,0,VALID,23.0984,VALID,201,VALID,0,
2009-02-20, 03:48:05,VALID,1002.88,VALID,0,VALID,93.8886,VALID,0,VALID,23.0984,VALID,201,VALID,0,
2009-02-20, 03:49:05,VALID,1002.89,VALID,0,VALID,93.9039,VALID,0,VALID,23.1391,VALID,201,VALID,0,
2009-02-20, 03:50:05,VALID,1002.95,VALID,0,VALID,93.8963,VALID,0,VALID,23.1374,VALID,201,VALID,0,